15min,AgWx,beryljct,423,06APR2020:00:00:00,44.8,12.9,49.2,49.8,49.4,49.9,48.7,45,46,44,0.536,28.7,28.9,28.6,10.61,13.2,184,8.8,18.2,0.00049,0.00059,47.1,46.3,22,0,.,.,11.19,0.00,0.00
15min,AgWx,beryljct,423,06APR2020:00:15:00,46.2,12.9,49.1,49.4,49.5,49.8,49.0,45,46,44,0.545,29.1,29.3,28.8,8.66,11.2,182,8.8,16.5,0.00044,0.00054,46.9,46.3,22,0,.,.,11.19,0.00,0.00
15min,AgWx,beryljct,423,06APR2020:00:30:00,46.9,12.89,49.2,48.1,48.8,49.5,48.1,47,48,45,0.552,29.4,29.6,29.1,7.234,8.7,178,10,16.5,0.00034,0.00044,46.7,46.3,22,0,.,.,11.19,0.00,0.00
15min,AgWx,beryljct,423,06APR2020:00:45:00,47.2,12.89,48.4,48.3,48.2,48.4,48.0,49,49,48,0.561,29.7,29.9,29.5,8.42,9.1,177,9.4,15.4,0.00033,0.00042,46.6,46.3,22,0,.,.,11.19,0.00,0.00
15min,AgWx,beryljct,423,06APR2020:01:00:00,47.3,12.88,47.8,48.3,48.3,48.6,48.0,49,49,48,0.561,30.0,30.1,29.9,8.83,11.6,169,8.8,21.7,0.00040,0.00048,46.5,46.3,22,0,.,.,11.20,0.00,0.00
15min,AgWx,beryljct,423,06APR2020:01:15:00,47.4,12.87,47.7,48.1,48.0,48.3,47.4,50,50,49,0.571,30.1,30.3,29.9,8.77,9.9,177,10,15.6,0.00035,0.00043,46.4,46.3,22,0,.,.,11.19,0.00,0.00
15min,AgWx,beryljct,423,06APR2020:01:30:00,47.3,12.86,48.5,48.2,48.1,48.5,47.8,50,50,49,0.561,30.1,30.3,29.8,12.78,10.9,181,9.0,16.5,0.00037,0.00046,46.3,46.2,22,0,.,.,11.19,0.00,0.00
15min,AgWx,beryljct,423,06APR2020:01:45:00,47.4,12.86,48.1,48.1,48.3,48.8,47.9,47,49,46,0.528,29.2,30.0,28.3,10.7,11.7,180,9.7,22.2,0.00042,0.00050,46.2,46.2,22,0,.,.,11.19,0.00,0.00
15min,AgWx,beryljct,423,06APR2020:02:00:00,47.3,12.85,47.2,47.1,47.5,48.1,46.8,48,49,46,0.535,28.6,28.8,28.4,5.02,7.9,188,9.4,14.1,0.00030,0.00039,46.1,46.2,22,0,.,.,11.19,0.00,0.00
15min,AgWx,beryljct,423,06APR2020:02:15:00,47.0,12.85,48.3,47.9,47.3,48.0,47.0,49,50,48,0.549,29.2,29.5,28.7,9.91,8.4,195,9.4,13.2,0.00030,0.00038,46.0,46.2,22,0,.,.,11.19,0.00,0.00
15min,AgWx,beryljct,423,06APR2020:02:30:00,47.1,12.85,47.7,47.6,47.9,48.1,47.5,49,49,48,0.553,29.5,29.6,29.4,8.62,9.4,194,11,14.6,0.00034,0.00043,45.9,46.1,22,0,.,.,11.19,0.00,0.00
15min,AgWx,beryljct,423,06APR2020:02:45:00,47.2,12.83,47.7,48.1,47.8,48.2,47.6,49,49,48,0.554,29.6,29.7,29.5,8.05,10.7,196,10,16.5,0.00037,0.00046,45.8,46.1,22,0,.,.,11.19,0.00,0.00
15min,AgWx,beryljct,423,06APR2020:03:00:00,47.3,12.84,47.3,47.1,47.7,48.2,47.1,49,50,49,0.554,29.6,29.8,29.5,7.848,10.2,188,11,16.4,0.00036,0.00044,45.7,46.1,22,0,.,.,11.19,0.00,0.00
15min,AgWx,beryljct,423,06APR2020:03:15:00,47.1,12.82,47.6,47.6,47.2,47.6,46.9,51,52,50,0.563,29.9,30.1,29.5,10.08,8.9,188,11,13.6,0.00030,0.00038,45.6,46.0,22,0,.,.,11.19,0.01,0.00
15min,AgWx,beryljct,423,06APR2020:03:30:00,47.3,12.81,48.6,48.0,47.7,48.0,47.5,50,51,50,0.572,30.2,30.5,30.0,13,9.9,192,8.2,13.8,0.00034,0.00042,45.6,46.0,22,0,.,.,11.19,0.00,0.00
15min,AgWx,beryljct,423,06APR2020:03:45:00,47.4,12.8,48.5,48.1,47.7,48.1,47.1,51,52,50,0.582,30.5,30.9,30.2,12.39,10.0,188,9.1,16.8,0.00033,0.00042,45.5,46.0,22,0,.,.,11.19,0.00,0.00
15min,AgWx,beryljct,423,06APR2020:04:00:00,47.6,12.81,47.9,47.7,48.0,48.3,47.5,51,52,51,0.588,30.9,31.1,30.8,13.22,11.1,193,9.0,16.4,0.00036,0.00044,45.4,45.9,22,0,.,.,11.19,0.00,0.00
15min,AgWx,beryljct,423,06APR2020:04:15:00,47.8,12.8,47.7,48.0,48.0,48.2,47.7,52,53,52,0.592,31.2,31.4,31.0,9.56,12.9,197,9.8,19.3,0.00039,0.00047,45.4,45.9,22,0,.,.,11.19,0.00,0.00
15min,AgWx,beryljct,423,06APR2020:04:30:00,47.8,12.81,47.9,47.6,47.6,48.2,47.3,53,54,52,0.594,31.3,31.4,31.1,12.04,10.7,193,9.2,17.2,0.00033,0.00041,45.3,45.9,22,0,.,.,11.19,0.00,0.00
15min,AgWx,beryljct,423,06APR2020:04:45:00,47.9,12.8,48.4,48.1,47.8,48.1,47.6,53,53,52,0.592,31.3,31.5,31.2,12.28,11.2,199,10,14.8,0.00035,0.00043,45.2,45.9,22,0,.,.,11.19,0.00,0.00
15min,AgWx,beryljct,423,06APR2020:05:00:00,47.9,12.8,47.5,47.4,47.8,48.1,47.4,53,53,52,0.593,31.3,31.4,31.1,11.84,10.8,192,9.4,16.6,0.00034,0.00042,45.2,45.8,22,0,.,.,11.19,0.00,0.00
15min,AgWx,beryljct,423,06APR2020:05:15:00,47.8,12.8,47.3,47.2,47.4,47.5,47.2,54,54,53,0.593,31.3,31.5,31.2,10.17,11.3,188,7.6,16.0,0.00034,0.00041,45.1,45.8,22,0,.,.,11.19,0.00,0.00
15min,AgWx,beryljct,423,06APR2020:05:30:00,47.5,12.79,46.3,46.5,46.8,47.2,46.5,55,56,54,0.596,31.4,31.5,31.2,6.423,8.7,189,7.9,12.9,0.00073,0.00127,45.1,45.8,22,0,.,.,11.19,0.00,0.00
15min,AgWx,beryljct,423,06APR2020:05:45:00,46.9,12.79,46.9,46.3,46.4,46.7,46.2,56,56,55,0.597,31.4,31.5,31.2,8.42,8.7,188,8.7,11.6,0.00070,0.00122,45.0,45.7,22,0,.,.,11.19,0.00,0.00
15min,AgWx,beryljct,423,06APR2020:06:00:00,46.7,12.78,46.7,46.6,46.7,47.0,46.4,55,56,55,0.601,31.6,31.7,31.4,8.77,10.4,190,9.1,15.0,0.00081,0.00141,45.0,45.7,22,0,.,.,11.19,0.00,0.00
15min,AgWx,beryljct,423,06APR2020:06:15:00,46.5,12.78,46.5,46.5,46.5,46.7,46.3,56,56,55,0.603,31.6,31.8,31.4,8.48,10.2,190,11,14.1,0.00079,0.00138,45.0,45.7,22,3,.,.,11.19,0.00,0.00
15min,AgWx,beryljct,423,06APR2020:06:30:00,46.4,12.79,47.1,46.3,46.4,46.7,46.1,56,57,56,0.605,31.7,31.9,31.6,11.6,9.3,190,8.0,13.4,0.00081,0.00135,44.9,45.6,22,22,.,.,11.19,0.00,0.00
15min,AgWx,beryljct,423,06APR2020:06:45:00,46.4,12.84,47.4,47.2,46.6,47.2,46.4,56,57,55,0.612,32.0,32.2,31.8,9.82,9.6,191,8.5,13.9,0.00092,0.00149,44.9,45.6,22,44,.,.,11.19,0.01,0.00
15min,AgWx,beryljct,423,06APR2020:07:00:00,46.7,12.82,47.9,47.8,47.3,47.8,47.1,56,56,55,0.617,32.2,32.6,31.9,11.03,8.8,186,8.6,14.2,0.00108,0.00164,44.8,45.6,22,95,.,.,11.19,0.00,0.00
15min,AgWx,beryljct,423,06APR2020:07:15:00,47.3,12.91,49.1,48.8,48.0,48.8,47.6,55,55,54,0.629,32.5,32.9,32.2,9.76,10.1,185,8.1,15.7,0.00131,0.00195,44.8,45.6,22,139,.,.,11.19,0.00,0.00
15min,AgWx,beryljct,423,06APR2020:07:30:00,49.0,13.09,50.3,50.3,49.8,50.4,48.8,52,54,50,0.627,32.8,33.5,32.4,14.25,12.4,184,12,19.0,0.00187,0.00269,44.7,45.6,22,266,.,.,11.19,0.00,0.00
15min,AgWx,beryljct,423,06APR2020:07:45:00,50.5,13.13,50.3,50.3,50.4,50.8,50.1,50,51,49,0.630,32.5,33.2,32.0,12.69,15.1,189,11,22.1,0.00194,0.00291,44.7,45.5,22,214,.,.,11.19,0.00,0.00
15min,AgWx,beryljct,423,06APR2020:08:00:00,51.1,13.34,50.3,50.2,50.3,50.5,50.1,51,51,50,0.623,32.6,33.1,32.3,16.9,16.7,192,10,27.1,0.00203,0.00304,44.6,45.5,22,232,.,.,11.19,0.00,0.00
15min,AgWx,beryljct,423,06APR2020:08:15:00,51.6,13.4,50.1,50.2,50.1,50.8,49.7,51,52,50,0.631,32.6,33.3,32.0,19.09,18.6,186,12,24.7,0.00213,0.00320,44.6,45.5,22,241,.,.,11.19,0.00,0.00
15min,AgWx,beryljct,423,06APR2020:08:30:00,52.0,13.5,50.2,50.1,50.3,50.7,50.0,51,52,50,0.635,32.9,33.3,32.6,18.44,17.7,191,9.9,23.9,0.00222,0.00327,44.6,45.4,22,278,.,.,11.19,0.00,0.00
15min,AgWx,beryljct,423,06APR2020:08:45:00,52.1,13.53,50.1,49.8,49.9,50.2,49.5,52,53,51,0.635,32.8,33.5,32.2,16.02,16.2,206,10,24.2,0.00213,0.00311,44.6,45.4,22,267,.,.,11.19,0.00,0.00
15min,AgWx,beryljct,423,06APR2020:09:00:00,52.2,13.53,50.1,49.8,49.9,50.2,49.7,53,54,51,0.647,33.3,34.2,32.5,17.49,13.3,207,8.6,18.5,0.00207,0.00293,44.7,45.4,22,275,.,.,11.19,0.00,0.00
15min,AgWx,beryljct,423,06APR2020:09:15:00,51.9,13.37,48.6,48.7,49.3,49.9,48.7,54,54,53,0.631,33.2,33.8,32.8,15.06,14.2,202,9.1,18.1,0.00169,0.00254,44.7,45.4,22,157,.,.,11.19,0.00,0.00
15min,AgWx,beryljct,423,06APR2020:09:30:00,51.3,14.42,49.4,49.1,48.8,49.5,48.4,54,55,52,0.619,33.0,33.8,32.4,13.31,13.3,198,11,18.7,0.00164,0.00243,44.8,45.3,22,167,.,.,11.18,0.00,0.00
15min,AgWx,beryljct,423,06APR2020:09:45:00,51.5,14.42,50.7,50.9,50.0,51.1,49.2,51,53,48,0.612,32.5,33.1,31.6,15.04,15.5,199,9.7,20.7,0.00239,0.00336,44.8,45.3,22,338,.,.,11.18,0.00,0.00
15min,AgWx,beryljct,423,06APR2020:10:00:00,52.8,14.41,50.9,51.1,51.6,53.0,50.9,45,49,43,0.579,31.1,32.8,29.6,16.24,16.8,199,8.7,24.1,0.00310,0.00431,44.9,45.3,22,474,.,.,11.19,0.00,0.00
15min,AgWx,beryljct,423,06APR2020:10:15:00,53.6,14.33,51.9,52.7,51.8,53.0,50.8,45,47,44,0.602,31.4,32.9,30.4,20.63,16.5,203,9.2,20.9,0.00340,0.00460,44.9,45.3,22,576,.,.,11.18,0.00,0.00
15min,AgWx,beryljct,423,06APR2020:10:30:00,54.8,14.44,53.4,53.7,53.0,55.2,51.7,43,45,41,0.598,31.3,33.4,29.9,16.02,16.8,195,8.8,23.5,0.00377,0.00509,45.0,45.3,22,645,.,.,11.18,0.00,0.00
15min,AgWx,beryljct,423,06APR2020:10:45:00,56.0,14.31,54.5,54.2,53.6,54.2,53.0,42,44,40,0.584,31.2,32.3,30.1,16.51,17.7,182,13,28.7,0.00440,0.00581,45.1,45.2,22,813,.,.,11.18,0.00,0.00
15min,AgWx,beryljct,423,06APR2020:11:00:00,57.1,14.33,54.4,53.9,54.2,56.2,53.4,42,45,40,0.578,31.7,34.8,30.4,21.97,18.7,181,13,28.3,0.00442,0.00589,45.2,45.2,22,797,.,.,11.18,0.00,0.00
15min,AgWx,beryljct,423,06APR2020:11:15:00,57.7,14.37,53.9,54.7,54.3,55.9,53.4,41,44,38,0.579,31.3,33.1,29.3,18.81,17.9,182,11,25.0,0.00419,0.00565,45.3,45.2,22,712,.,.,11.18,0.00,0.00
15min,AgWx,beryljct,423,06APR2020:11:30:00,57.9,14.29,54.0,54.2,54.2,54.6,53.6,39,40,36,0.541,29.5,30.6,28.0,17.67,19.1,188,11,25.1,0.00417,0.00573,45.5,45.2,22,683,.,.,11.18,0.00,0.00
15min,AgWx,beryljct,423,06APR2020:11:45:00,58.2,13.91,56.5,54.4,54.6,55.5,53.6,40,44,37,0.597,30.8,32.4,28.4,16.18,18.0,183,11,25.3,0.00436,0.00586,45.7,45.2,22,743,.,.,11.18,0.00,0.00
15min,AgWx,beryljct,423,06APR2020:12:00:00,58.7,13.88,54.6,55.2,54.9,56.9,53.3,41,43,38,0.577,32.0,33.7,30.6,12.21,15.9,194,14,23.4,0.00503,0.00647,45.9,45.2,22,952,.,.,11.17,0.00,0.00
15min,AgWx,beryljct,423,06APR2020:12:15:00,59.1,13.89,55.1,55.4,55.1,56.3,54.2,36,40,32,0.483,28.8,31.3,26.0,16.88,17.8,197,11,26.5,0.00453,0.00613,46.1,45.2,22,751,.,.,11.17,0.00,0.00
15min,AgWx,beryljct,423,06APR2020:12:30:00,59.3,13.86,55.5,56.6,55.4,56.6,54.1,34,38,32,0.519,27.8,29.4,26.2,23.37,17.4,189,16,23.5,0.00485,0.00649,46.3,45.2,22,826,.,.,11.18,0.00,0.00
15min,AgWx,beryljct,423,06APR2020:12:45:00,59.6,13.93,55.0,56.9,55.7,57.0,54.7,34,37,32,0.528,27.9,29.9,26.1,20.5,17.9,189,13,24.0,0.00468,0.00636,46.5,45.2,22,759,.,.,11.17,0.00,0.00
15min,AgWx,beryljct,423,06APR2020:13:00:00,59.7,13.86,57.6,56.3,55.5,56.9,54.4,36,39,33,0.574,29.0,30.5,26.6,16.99,18.5,184,15,24.5,0.00451,0.00616,46.7,45.2,22,739,.,.,11.17,0.00,0.00
15min,AgWx,beryljct,423,06APR2020:13:15:00,60.1,13.9,53.2,54.0,55.7,57.9,54.0,36,39,34,0.509,29.3,31.7,27.2,18.72,19.7,175,14,26.1,0.00450,0.00620,47.0,45.3,22,718,.,.,11.18,0.00,0.00
15min,AgWx,beryljct,423,06APR2020:13:30:00,59.3,13.86,56.0,54.8,54.4,55.1,53.9,35,37,34,0.533,27.6,28.8,26.2,14.69,18.7,193,11,26.0,0.00382,0.00541,47.2,45.3,22,543,.,.,11.17,0.00,0.00
15min,AgWx,beryljct,423,06APR2020:13:45:00,59.1,13.88,55.1,55.3,55.1,56.4,54.2,36,38,35,0.516,28.7,30.1,27.4,17.93,16.8,197,10,23.6,0.00410,0.00563,47.4,45.3,22,644,.,.,11.17,0.00,0.00
15min,AgWx,beryljct,423,06APR2020:14:00:00,59.3,13.87,54.5,55.2,55.3,56.2,54.3,35,37,34,0.540,28.5,29.9,26.9,21.2,17.2,194,9.7,24.1,0.00405,0.00562,47.6,45.3,22,613,.,.,11.17,0.00,0.00
15min,AgWx,beryljct,423,06APR2020:14:15:00,58.8,13.93,53.9,53.7,54.3,55.1,53.6,36,37,35,0.524,28.0,28.8,27.2,15.06,17.8,189,11,25.2,0.00338,0.00490,47.8,45.4,22,426,.,.,11.17,0.00,0.00
15min,AgWx,beryljct,423,06APR2020:14:30:00,58.2,13.91,54.9,54.0,53.9,54.4,53.6,37,38,36,0.528,28.3,29.1,27.4,14.34,16.7,187,12,23.0,0.00325,0.00468,48.0,45.4,22,427,.,.,11.17,0.00,0.00
15min,AgWx,beryljct,423,06APR2020:14:45:00,58.0,13.93,55.0,54.3,54.4,55.4,53.9,37,38,36,0.534,28.8,30.1,27.7,13.68,15.8,192,11,22.0,0.00341,0.00483,48.1,45.5,22,485,.,.,11.17,0.00,0.00
15min,AgWx,beryljct,423,06APR2020:15:00:00,58.0,13.89,53.5,53.9,54.1,54.8,53.7,37,39,36,0.523,28.7,30.0,27.9,15.7,15.5,198,9.9,20.1,0.00317,0.00454,48.2,45.5,22,430,.,.,11.18,0.00,0.00
15min,AgWx,beryljct,423,06APR2020:15:15:00,57.9,13.9,55.0,54.8,54.1,54.8,53.9,37,38,36,0.551,28.5,29.6,27.9,12.93,14.6,190,12,19.1,0.00320,0.00453,48.4,45.5,22,461,.,.,11.17,0.00,0.00
15min,AgWx,beryljct,423,06APR2020:15:30:00,57.7,13.92,54.0,53.7,53.8,54.7,53.4,38,39,37,0.531,29.1,29.7,28.5,18.41,16.5,195,12,22.3,0.00312,0.00451,48.4,45.6,22,451,.,.,11.18,0.01,0.00
15min,AgWx,beryljct,423,06APR2020:15:45:00,57.9,13.88,53.6,54.7,54.6,55.0,53.7,38,39,36,0.558,29.3,30.4,28.3,16.4,14.5,200,11,22.5,0.00324,0.00457,48.5,45.6,22,495,.,.,11.17,0.00,0.00
15min,AgWx,beryljct,423,06APR2020:16:00:00,57.9,13.86,53.9,53.9,54.0,54.7,53.5,39,40,38,0.550,29.5,30.4,29.0,13,14.2,201,15,18.2,0.00288,0.00415,48.6,45.7,22,427,.,.,11.17,0.00,0.00
15min,AgWx,beryljct,423,06APR2020:16:15:00,57.4,13.9,53.0,53.3,53.4,54.3,53.0,39,40,37,0.519,29.1,30.2,28.0,22.73,14.8,192,13,22.7,0.00243,0.00367,48.7,45.7,22,297,.,.,11.18,0.00,0.00
15min,AgWx,beryljct,423,06APR2020:16:30:00,56.8,13.95,53.0,52.7,53.1,53.6,52.7,37,38,36,0.515,27.2,27.8,26.4,15.24,17.0,204,9.7,21.7,0.00246,0.00385,48.8,45.8,22,272,.,.,11.18,0.00,0.00
15min,AgWx,beryljct,423,06APR2020:16:45:00,56.4,13.93,52.6,52.9,53.1,53.5,52.7,36,38,35,0.503,27.1,28.0,25.9,15.43,16.5,198,12,23.2,0.00248,0.00384,48.8,45.8,22,298,.,.,11.18,0.00,0.00
15min,AgWx,beryljct,423,06APR2020:17:00:00,55.8,13.95,52.2,52.3,52.5,52.9,52.3,37,39,36,0.522,27.3,28.2,26.3,12.56,15.9,199,8.0,24.3,0.00203,0.00331,48.9,45.9,22,201,.,.,11.18,0.00,0.00
15min,AgWx,beryljct,423,06APR2020:17:15:00,55.2,13.98,52.5,52.2,52.1,52.4,51.9,39,40,38,0.535,28.1,28.7,27.4,9.65,13.1,200,12,19.2,0.00165,0.00274,48.9,45.9,22,167,.,.,11.18,0.00,0.00
15min,AgWx,beryljct,423,06APR2020:17:30:00,55.2,13.96,53.2,52.6,52.7,53.1,52.2,39,41,38,0.530,28.6,29.5,27.5,11.64,13.7,197,11,20.7,0.00218,0.00333,48.9,46.0,22,283,.,.,11.18,0.00,0.00
15min,AgWx,beryljct,423,06APR2020:17:45:00,55.0,13.41,51.3,51.3,51.9,52.8,51.2,40,41,39,0.522,28.4,29.0,27.9,11.88,12.9,196,10,17.8,0.00147,0.00252,48.9,46.0,22,130,.,.,11.18,0.01,0.00
15min,AgWx,beryljct,423,06APR2020:18:00:00,54.1,13.42,50.8,50.8,51.0,51.2,50.7,42,43,41,0.543,28.5,29.1,28.0,14.71,12.2,206,9.9,16.9,0.00114,0.00210,48.9,46.1,22,78,.,.,11.18,0.00,0.00
15min,AgWx,beryljct,423,06APR2020:18:15:00,53.4,13.31,50.7,50.6,50.7,50.8,50.6,43,44,43,0.543,29.1,29.4,28.8,13.39,11.3,213,11,17.9,0.00058,0.00069,48.9,46.2,22,81,.,.,11.18,0.00,0.00
15min,AgWx,beryljct,423,06APR2020:18:30:00,52.8,13.2,50.6,50.5,50.5,50.7,50.2,44,44,43,0.543,29.2,29.5,28.9,10.81,11.2,212,10,15.2,0.00054,0.00066,48.9,46.2,22,64,.,.,11.18,0.00,0.00
15min,AgWx,beryljct,423,06APR2020:18:45:00,52.4,13.15,50.1,50.2,50.5,50.7,50.2,44,45,43,0.554,29.3,29.8,28.9,13.24,12.4,211,10,16.8,0.00056,0.00067,48.8,46.2,22,54,.,.,11.18,0.00,0.00
15min,AgWx,beryljct,423,06APR2020:19:00:00,51.9,13.09,49.2,49.3,49.7,50.2,49.3,46,47,45,0.565,29.9,30.2,29.6,10.22,11.9,223,13,15.8,0.00047,0.00056,48.8,46.2,22,16,.,.,11.18,0.00,0.00
15min,AgWx,beryljct,423,06APR2020:19:15:00,51.1,13.06,47.4,47.8,48.5,49.3,47.8,51,54,47,0.606,31.0,31.8,30.2,11.22,11.3,233,7.3,14.3,0.00038,0.00046,48.7,46.3,22,3,.,.,11.19,0.00,0.00
15min,AgWx,beryljct,423,06APR2020:19:30:00,50.0,13.03,47.3,47.1,47.2,47.7,47.0,55,55,54,0.605,31.8,31.9,31.7,12.91,11.2,232,7.9,15.6,0.00033,0.00040,48.6,46.3,22,0,.,.,11.19,0.00,0.00
15min,AgWx,beryljct,423,06APR2020:19:45:00,49.1,13.01,46.4,46.3,46.7,47.1,46.3,55,56,55,0.590,31.5,31.8,31.1,9.08,9.2,235,8.0,14.2,0.00027,0.00034,48.6,46.4,22,0,.,.,11.19,0.00,0.00
15min,AgWx,beryljct,423,06APR2020:20:00:00,48.3,13.01,46.4,46.1,46.1,46.4,45.9,56,56,55,0.588,31.1,31.3,30.9,8.79,8.1,237,10,13.6,0.00023,0.00030,48.5,46.4,22,0,.,.,11.19,0.00,0.00
15min,AgWx,beryljct,423,06APR2020:20:15:00,47.7,13,46.7,46.2,45.8,46.2,45.2,56,58,55,0.596,31.2,31.5,30.9,7.388,5.9,237,15,11.4,0.00015,0.00021,48.4,46.4,22,0,.,.,11.19,0.00,0.00
15min,AgWx,beryljct,423,06APR2020:20:30:00,47.4,13,45.4,45.6,45.8,46.3,45.4,57,59,56,0.606,31.6,31.9,31.3,4.823,4.8,246,14,9.9,0.00010,0.00015,48.3,46.4,22,0,.,.,11.19,0.00,0.00
15min,AgWx,beryljct,423,06APR2020:20:45:00,47.2,12.99,45.6,45.5,45.7,46.0,45.3,58,60,57,0.610,31.9,32.2,31.7,5.809,6.1,254,9.0,9.1,0.00014,0.00020,48.2,46.4,22,0,.,.,11.19,0.00,0.00
15min,AgWx,beryljct,423,06APR2020:21:00:00,46.9,12.97,45.5,45.2,45.4,45.6,45.2,59,60,59,0.606,31.9,32.1,31.8,0.526,3.3,275,28,6.8,0.00001,0.00004,48.0,46.4,22,0,.,.,11.19,0.00,0.00
15min,AgWx,beryljct,423,06APR2020:21:15:00,46.5,12.98,45.4,44.9,45.0,45.4,44.6,59,61,59,0.599,31.8,32.0,31.4,2.916,1.1,25,51,2.9,-0.00019,-0.00026,47.9,46.5,22,0,.,.,11.19,0.00,0.00
15min,AgWx,beryljct,423,06APR2020:21:30:00,45.7,12.96,42.3,41.5,43.8,45.1,41.5,61,65,59,0.575,31.1,31.5,30.4,1.732,1.5,291,14,2.9,-0.00014,-0.00018,47.8,46.5,22,0,.,.,11.19,0.00,0.00
15min,AgWx,beryljct,423,06APR2020:21:45:00,44.6,12.96,42.9,42.0,41.2,42.0,40.3,66,68,65,0.599,30.9,31.5,30.3,1.337,1.2,266,34,2.3,-0.00017,-0.00023,47.7,46.5,22,0,.,.,11.20,0.00,0.00
15min,AgWx,beryljct,423,06APR2020:22:00:00,43.6,12.95,41.9,42.1,41.4,42.9,39.6,66,70,63,0.587,31.0,32.2,29.2,4.209,3.7,253,20,5.4,-0.00001,0.00001,47.6,46.5,22,0,.,.,11.19,0.00,0.00
15min,AgWx,beryljct,423,06APR2020:22:15:00,42.5,12.94,38.7,39.1,40.8,42.4,39.1,67,71,64,0.546,30.6,31.4,29.2,3.88,3.7,256,4.7,4.4,-0.00001,0.00000,47.5,46.5,22,0,.,.,11.20,0.00,0.00
15min,AgWx,beryljct,423,06APR2020:22:30:00,41.5,12.93,38.5,38.0,38.8,40.0,36.8,71,75,68,0.566,30.1,31.0,28.1,1.754,2.8,239,39,5.1,-0.00007,-0.00007,47.3,46.5,22,0,.,.,11.20,0.00,0.00
15min,AgWx,bigpiney,439,06APR2020:00:00:00,32.4,12.61,28.3,27.9,28.5,29.3,27.8,96,97,96,0.499,27.6,28.6,26.8,3.31,3.8,275,9.7,4.8,-0.00003,-0.00004,31.6,31.8,16,0,0,0.0,6.06,0.00,0.00
15min,AgWx,bigpiney,439,06APR2020:00:15:00,32.1,12.6,28.4,28.1,28.9,29.6,27.9,97,98,96,0.501,28.1,29.0,27.1,3.376,4.1,282,3.9,4.8,-0.00003,-0.00004,31.6,31.8,16,0,0,0.0,6.06,0.00,0.00
15min,AgWx,bigpiney,439,06APR2020:00:30:00,31.8,12.59,29.4,28.7,28.9,29.9,28.1,97,98,95,0.511,28.1,29.4,27.1,3.135,3.4,292,9.6,4.5,-0.00004,-0.00004,31.6,31.8,16,0,0,0.0,6.06,0.00,0.00
15min,AgWx,bigpiney,439,06APR2020:00:45:00,31.6,12.58,30.6,30.7,30.4,31.3,28.8,97,98,96,0.560,29.7,30.5,27.8,3.069,3.1,308,15,3.5,-0.00004,-0.00005,31.6,31.8,16,0,0,0.0,6.06,0.00,0.00
15min,AgWx,bigpiney,439,06APR2020:01:00:00,31.7,12.57,30.6,30.1,30.3,30.7,30.0,97,97,96,0.546,29.5,29.8,29.1,3.749,2.6,332,14,3.7,-0.00004,-0.00005,31.6,31.8,16,0,1,0.0,6.06,0.00,0.00
15min,AgWx,bigpiney,439,06APR2020:01:15:00,31.7,12.57,31.2,30.7,30.0,30.7,29.5,97,98,96,0.565,29.2,30.1,28.6,1.841,3.1,286,17,4.2,-0.00004,-0.00005,31.6,31.8,16,0,1,0.0,6.06,0.00,0.00
15min,AgWx,bigpiney,439,06APR2020:01:30:00,31.6,12.57,28.4,28.1,28.7,30.7,27.4,96,98,95,0.504,27.8,30.1,26.2,5.546,3.9,273,20,5.8,-0.00003,-0.00004,31.6,31.8,16,0,1,0.0,6.06,0.00,0.00
15min,AgWx,bigpiney,439,06APR2020:01:45:00,31.4,12.55,30.8,30.1,29.2,30.1,28.1,97,98,97,0.549,28.5,29.5,27.3,3.595,4.8,308,6.6,6.5,-0.00003,-0.00003,31.6,31.8,16,0,1,0.0,6.06,0.00,0.00
15min,AgWx,bigpiney,439,06APR2020:02:00:00,31.4,12.54,30.2,30.1,30.4,30.9,29.9,96,97,96,0.546,29.5,30.1,28.8,2.784,3.1,331,10,4.1,-0.00004,-0.00005,31.6,31.8,16,0,1,0.0,6.06,0.00,0.00
15min,AgWx,bigpiney,439,06APR2020:02:15:00,31.4,12.54,27.8,26.3,29.1,30.3,25.9,95,97,93,0.456,27.9,29.4,24.1,3.223,3.1,275,28,4.0,-0.00003,-0.00004,31.7,31.8,16,0,1,0.0,6.06,0.00,0.00
15min,AgWx,bigpiney,439,06APR2020:02:30:00,31.0,12.53,27.4,27.2,27.9,29.4,25.9,96,98,92,0.483,27.0,28.7,24.0,4.253,3.1,240,11,4.3,-0.00004,-0.00004,31.6,31.9,16,0,1,0.0,6.06,0.00,0.00
15min,AgWx,bigpiney,439,06APR2020:02:45:00,30.4,12.52,25.0,25.4,26.6,27.7,24.7,96,98,93,0.447,25.6,27.1,23.1,2.806,3.0,231,18,4.2,-0.00003,-0.00004,31.6,31.8,16,0,1,0.0,6.06,0.00,0.00
15min,AgWx,bigpiney,439,06APR2020:03:00:00,29.7,12.51,25.0,24.5,24.6,25.4,24.2,96,97,95,0.431,23.6,24.5,23.1,2.302,3.3,220,12,4.0,-0.00003,-0.00003,31.6,31.8,16,0,1,0.0,6.06,0.00,0.00
15min,AgWx,bigpiney,439,06APR2020:03:15:00,29.0,12.5,24.1,24.1,24.4,25.4,24.0,96,97,95,0.420,23.4,24.8,22.8,2.389,2.5,223,12,3.0,-0.00004,-0.00005,31.6,31.8,16,0,1,0.0,6.06,0.00,0.00
15min,AgWx,bigpiney,439,06APR2020:03:30:00,28.5,12.49,22.9,23.0,24.3,26.5,23.0,95,98,93,0.394,23.1,26.0,21.4,3.749,2.5,203,14,4.0,-0.00004,-0.00004,31.6,31.7,16,0,1,0.0,6.06,0.00,0.00
15min,AgWx,bigpiney,439,06APR2020:03:45:00,28.0,12.47,24.2,23.7,23.0,23.8,22.0,95,96,93,0.412,21.6,22.6,20.3,3.025,3.3,216,7.2,4.3,-0.00003,-0.00003,31.6,31.8,16,0,1,0.0,6.06,0.00,0.00
15min,AgWx,bigpiney,439,06APR2020:04:00:00,27.9,12.46,25.9,25.4,24.7,25.4,23.7,95,96,95,0.443,23.5,24.2,22.5,2.477,3.3,218,8.3,4.2,-0.00003,-0.00003,31.6,31.8,16,0,1,0.0,6.06,0.00,0.00
15min,AgWx,bigpiney,439,06APR2020:04:15:00,28.3,12.45,27.3,26.9,26.1,26.9,25.4,95,96,95,0.470,24.9,25.7,24.2,1.82,3.0,220,8.5,4.1,-0.00003,-0.00004,31.6,31.8,16,0,1,0.0,6.06,0.00,0.00
15min,AgWx,bigpiney,439,06APR2020:04:30:00,28.9,12.43,27.3,26.9,26.8,27.2,26.6,95,96,94,0.474,25.6,26.0,25.2,0,1.4,288,29,3.4,-0.00005,-0.00007,31.6,31.8,16,0,1,0.0,6.06,0.00,0.00
15min,AgWx,bigpiney,439,06APR2020:04:45:00,29.5,12.42,27.6,27.2,27.0,27.2,26.9,96,97,96,0.487,26.0,26.4,25.8,2.718,1.8,340,30,3.6,-0.00005,-0.00006,31.6,31.8,16,0,1,0.0,6.06,0.00,0.00
15min,AgWx,bigpiney,439,06APR2020:05:00:00,30.0,12.41,27.6,27.6,27.5,28.0,27.1,97,97,97,0.495,26.8,27.3,26.4,2.543,2.5,359,21,4.2,-0.00004,-0.00005,31.6,31.9,16,0,1,0.0,6.06,0.00,0.00
15min,AgWx,bigpiney,439,06APR2020:05:15:00,30.3,12.39,27.3,27.2,27.8,28.1,27.2,97,97,97,0.487,27.0,27.3,26.4,2.521,1.1,351,55,3.1,-0.00006,-0.00008,31.6,31.8,16,0,1,0.0,6.06,0.00,0.00
15min,AgWx,bigpiney,439,06APR2020:05:30:00,30.6,12.38,26.8,27.0,27.3,27.6,26.9,97,97,97,0.482,26.5,26.9,26.1,1.776,1.3,334,33,3.6,-0.00006,-0.00008,31.6,31.8,16,0,1,0.0,6.06,0.00,0.00
15min,AgWx,bigpiney,439,06APR2020:05:45:00,30.5,12.38,27.2,26.7,26.5,26.9,26.3,97,98,97,0.480,25.8,26.1,25.4,3.266,1.4,325,81,4.9,-0.00005,-0.00007,31.6,31.8,16,0,1,0.0,6.06,0.00,0.00
15min,AgWx,bigpiney,439,06APR2020:06:00:00,30.1,12.37,25.2,25.1,25.9,26.7,25.1,97,98,96,0.444,25.1,26.1,24.2,4.998,3.7,280,97,6.9,-0.00003,-0.00003,31.6,31.9,16,3,1,0.0,6.06,0.00,0.00
15min,AgWx,bigpiney,439,06APR2020:06:15:00,29.8,12.39,26.1,25.7,25.5,25.7,25.1,97,97,96,0.459,24.8,25.0,24.2,2.784,2.6,317,21,5.2,-0.00012,-0.00013,31.6,31.8,16,12,1,0.0,6.06,0.00,0.00
15min,AgWx,bigpiney,439,06APR2020:06:30:00,29.6,12.42,26.4,26.3,26.2,26.4,25.8,97,97,97,0.470,25.5,25.7,25.1,1.25,1.0,217,38,2.8,-0.00008,-0.00009,31.6,31.8,16,29,1,0.0,6.06,0.00,0.00
15min,AgWx,bigpiney,439,06APR2020:06:45:00,29.7,12.45,27.7,27.3,26.6,27.3,26.3,97,98,97,0.490,26.0,26.6,25.5,3.113,2.6,285,21,6.3,0.00004,0.00005,31.6,31.9,16,50,1,0.0,6.06,0.00,0.00
15min,AgWx,bigpiney,439,06APR2020:07:00:00,29.9,12.53,28.4,28.1,27.8,28.1,27.3,97,98,97,0.508,27.2,27.5,26.7,1.25,1.6,259,29,3.0,0.00014,0.00016,31.6,31.9,16,70,1,0.0,6.06,0.00,0.00
15min,AgWx,bigpiney,439,06APR2020:07:15:00,30.3,12.63,28.8,28.6,28.4,28.6,28.1,97,98,97,0.517,27.7,27.9,27.5,1.578,1.0,236,52,2.2,0.00025,0.00027,31.6,31.9,16,92,1,0.0,6.06,0.00,0.00
15min,AgWx,bigpiney,439,06APR2020:07:30:00,30.7,12.82,29.0,28.6,28.4,28.7,28.3,97,98,97,0.518,27.8,28.0,27.6,1.688,1.8,187,34,3.2,0.00035,0.00037,31.6,31.8,16,120,1,0.0,6.06,0.00,0.00
15min,AgWx,bigpiney,439,06APR2020:07:45:00,31.2,12.97,29.2,28.8,28.7,28.9,28.5,98,98,97,0.522,28.1,28.2,27.9,2.346,1.2,279,43,2.6,0.00044,0.00048,31.6,31.8,16,138,1,0.0,6.06,0.00,0.00
15min,AgWx,bigpiney,439,06APR2020:08:00:00,31.7,13.12,29.7,29.3,29.1,29.4,28.8,98,98,97,0.535,28.5,28.8,28.2,3.42,3.1,307,12,4.6,0.00046,0.00050,31.6,31.8,16,144,1,0.0,6.06,0.00,0.00
15min,AgWx,bigpiney,439,06APR2020:08:15:00,32.2,13.21,30.2,30.0,29.8,30.1,29.3,98,98,97,0.546,29.2,29.4,28.7,0.636,0.9,303,28,3.0,0.00061,0.00065,31.6,31.8,16,165,1,0.0,6.06,0.00,0.00
15min,AgWx,bigpiney,439,06APR2020:08:30:00,32.7,13.62,30.3,30.0,30.0,30.1,29.8,96,97,95,0.537,29.0,29.2,28.8,1.929,1.2,12,28,2.1,0.00068,0.00073,31.6,31.8,16,185,1,0.0,6.06,0.00,0.00
15min,AgWx,bigpiney,439,06APR2020:08:45:00,33.1,14.12,30.9,30.7,30.5,31.1,30.0,95,96,95,0.548,29.3,30.1,28.8,3.223,1.5,101,25,4.4,0.00105,0.00112,31.7,31.8,16,297,1,0.0,6.07,0.00,0.01
15min,AgWx,bigpiney,439,06APR2020:09:00:00,33.9,13.87,31.9,32.0,31.3,32.0,30.8,95,96,95,0.585,30.1,30.9,29.4,1.82,1.8,114,22,3.8,0.00110,0.00118,31.7,31.8,16,302,1,0.0,6.07,0.00,0.00
15min,AgWx,bigpiney,439,06APR2020:09:15:00,34.7,14.71,34.1,33.2,32.5,33.2,31.9,95,96,93,0.598,31.2,31.9,30.6,0,1.3,138,28,3.1,0.00126,0.00135,31.7,31.9,16,332,1,0.0,6.07,0.00,0.00